Total_Precipitation_Accumulation
0.14 0.33 0.79 1.27 1.93 2.61 2.33 1.58 0.90 0.69 0.61 0.69 0.77 0.77 0.87 1.00 1.43 2.20 2.28 2.04 1.75 1.98 2.42 3.07 3.37 2.93 2.64 2.58 2.51 2.55 2.68 2.65 2.66 2.71 2.76 2.86 3.11 3.31 3.45 3.42 3.16 3.01 2.94 2.84 3.01 3.14 3.03 2.95 2.81
0.26 0.57 1.02 1.52 2.34 2.58 2.02 1.70 0.88 0.65 0.61 0.63 0.68 0.72 0.78 0.72 0.72 1.22 2.00 1.85 1.58 1.74 2.04 2.57 3.15 2.88 2.52 2.52 2.52 2.63 2.67 2.59 2.58 2.66 2.82 2.99 3.21 3.35 3.30 3.10 2.93 2.91 2.81 2.71 2.77 2.97 2.86 2.62 2.61
0.38 0.72 1.08 1.60 1.70 1.64 1.37 1.11 0.71 0.60 0.57 0.69 0.72 0.69 0.70 0.97 0.95 1.33 1.69 1.51 1.60 1.72 1.97 2.67 3.11 2.97 2.72 2.60 2.64 2.58 2.51 2.48 2.61 2.77 2.96 3.18 3.21 3.27 3.13 2.95 2.80 2.69 2.52 2.55 2.64 2.85 2.78 2.60 2.59
0.45 0.79 1.06 1.18 1.04 0.86 0.72 0.60 0.46 0.55 0.51 0.59 0.70 0.70 0.85 1.00 0.97 1.29 1.48 1.49 1.57 1.79 2.05 2.55 2.89 2.84 2.70 2.52 2.49 2.59 2.63 2.65 2.78 2.77 2.91 3.10 3.11 3.25 3.12 2.81 2.66 2.44 2.25 2.27 2.51 2.78 2.82 2.65 2.57
0.58 0.92 1.19 0.97 0.78 0.67 0.55 0.46 0.42 0.52 0.51 0.62 0.75 0.93 1.21 1.22 1.06 1.34 1.49 1.47 1.49 1.65 1.96 2.21 2.67 2.86 2.76 2.65 2.70 2.78 2.75 2.77 2.80 2.70 2.71 2.72 2.76 2.90 2.77 2.55 2.48 2.32 2.06 2.04 2.47 2.76 2.73 2.49 2.42
0.66 0.99 0.91 0.67 0.61 0.53 0.49 0.39 0.36 0.46 0.54 0.62 0.80 1.11 1.61 1.69 1.44 1.39 1.38 1.28 1.41 1.59 1.81 2.03 2.47 2.76 2.87 2.84 2.94 2.90 2.84 2.88 2.78 2.65 2.57 2.45 2.31 2.46 2.41 2.25 2.33 2.25 2.12 2.27 2.61 2.72 2.55 2.43 2.46
0.77 0.96 0.63 0.47 0.50 0.48 0.43 0.34 0.39 0.39 0.52 0.73 0.91 1.22 1.81 2.19 1.80 1.45 1.42 1.47 1.64 1.66 1.74 2.10 2.41 2.51 2.61 3.00 3.11 3.04 2.96 3.00 2.89 2.77 2.55 2.37 2.16 2.15 2.10 2.14 2.25 2.25 2.35 2.51 2.74 2.76 2.63 2.50 2.65
0.38 0.50 0.46 0.38 0.32 0.39 0.39 0.33 0.35 0.41 0.48 0.65 0.84 1.17 1.83 1.87 1.60 1.52 1.75 1.87 2.06 1.97 1.86 2.04 2.25 2.21 2.23 2.53 2.94 3.01 2.83 2.75 2.77 2.86 2.60 2.55 2.42 2.23 2.18 2.16 2.22 2.34 2.50 2.79 2.94 2.93 2.84 2.64 2.73
0.22 0.36 0.35 0.26 0.23 0.30 0.29 0.29 0.34 0.36 0.42 0.63 0.81 1.07 1.42 1.37 1.33 1.40 2.01 2.22 2.29 2.15 2.13 2.07 1.99 1.97 2.06 2.17 2.57 2.81 2.89 2.85 2.90 3.03 2.81 2.73 2.74 2.43 2.48 2.45 2.66 2.78 2.79 3.12 3.35 3.40 3.13 3.00 3.19
0.19 0.23 0.17 0.13 0.13 0.20 0.25 0.31 0.33 0.38 0.60 0.98 1.29 1.32 1.27 1.28 1.42 1.64 2.12 2.13 2.30 2.37 2.19 2.19 2.12 1.98 1.88 1.98 2.37 2.71 2.53 2.66 2.99 3.14 2.92 2.84 3.04 3.07 2.54 2.81 3.32 3.53 3.53 3.73 3.94 3.90 3.33 2.96 2.93
0.14 0.16 0.10 0.11 0.14 0.18 0.22 0.30 0.35 0.42 0.88 1.34 1.79 1.63 1.42 1.51 1.64 1.90 2.32 2.57 2.56 2.69 2.47 2.41 2.27 2.02 1.80 2.06 2.05 2.35 2.58 2.84 3.03 2.95 2.87 2.87 2.71 2.64 2.64 3.06 3.65 3.82 3.76 3.87 4.07 3.83 3.24 3.26 3.42
0.10 0.12 0.12 0.14 0.17 0.19 0.26 0.32 0.41 0.52 0.81 0.93 1.16 1.43 1.55 1.72 1.95 2.23 2.41 2.65 2.69 2.79 2.67 2.75 2.47 2.34 2.42 2.32 2.05 1.99 2.07 2.30 2.65 2.94 2.87 2.95 3.22 3.21 3.15 3.40 3.48 3.72 3.91 4.27 3.98 3.96 3.76 3.71 3.56
0.08 0.10 0.14 0.14 0.16 0.20 0.25 0.29 0.42 0.58 0.64 0.70 1.01 1.36 1.70 1.84 2.13 2.44 2.55 2.83 2.75 2.74 2.78 2.90 2.75 2.60 2.69 2.52 2.37 2.16 2.22 2.19 2.32 2.60 2.88 2.98 3.38 3.68 3.63 3.58 3.57 3.52 3.46 3.63 3.73 3.60 3.92 4.09 3.63
0.07 0.10 0.12 0.13 0.17 0.21 0.25 0.31 0.43 0.62 0.72 0.89 1.13 1.37 1.68 2.00 2.21 2.38 2.80 2.97 3.05 3.00 3.09 2.93 2.91 2.87 2.85 2.81 2.82 2.74 2.44 2.52 2.49 2.60 2.69 2.89 3.37 3.83 3.91 3.76 3.62 3.37 3.26 3.34 3.49 3.61 4.06 4.04 3.82
0.10 0.17 0.17 0.19 0.24 0.23 0.30 0.54 0.67 0.80 0.83 0.97 1.17 1.28 1.62 2.15 2.39 2.43 2.78 2.94 2.90 3.33 3.44 3.46 3.39 3.51 3.46 3.31 3.22 3.01 2.82 2.69 2.74 2.97 3.09 3.06 3.24 3.61 3.58 3.35 3.21 3.17 3.26 3.45 3.45 3.65 3.83 3.53 3.57
0.13 0.26 0.33 0.32 0.29 0.25 0.38 0.83 0.88 0.95 0.93 1.10 1.26 1.40 1.69 2.01 2.33 2.48 2.76 2.97 3.07 3.50 3.79 4.09 3.91 3.94 3.78 3.78 3.76 3.46 3.20 3.05 2.94 2.98 3.09 2.92 2.91 3.07 3.37 3.15 3.02 3.31 3.33 3.46 3.76 3.92 3.82 3.81 3.86
0.18 0.24 0.29 0.31 0.26 0.26 0.36 0.70 0.83 0.98 1.18 1.35 1.49 1.62 1.66 1.95 2.26 2.60 2.85 3.19 3.48 3.86 4.25 4.70 4.62 4.39 4.10 4.15 4.13 3.90 3.73 3.43 3.06 2.91 2.89 2.78 2.77 2.92 3.28 3.31 3.41 3.42 3.55 3.62 3.42 3.87 3.94 3.91 3.96
0.17 0.20 0.25 0.29 0.25 0.29 0.48 0.72 0.82 1.02 1.30 1.33 1.56 1.71 1.79 1.88 2.33 2.77 2.95 3.33 3.80 4.33 4.78 4.76 4.74 4.91 4.78 4.62 4.50 4.18 3.69 3.25 3.09 3.06 2.91 2.79 2.88 3.00 3.42 3.30 3.30 3.34 3.58 3.71 3.65 3.82 3.88 3.64 3.65
0.11 0.16 0.22 0.27 0.24 0.28 0.46 0.75 1.06 1.22 1.52 1.43 1.43 1.58 1.70 1.82 2.12 2.56 2.85 3.37 3.96 4.40 4.83 5.04 5.12 5.01 4.86 4.52 4.22 3.97 3.72 3.51 3.24 3.04 2.96 2.91 2.83 3.04 3.51 3.27 3.56 3.49 3.54 3.60 3.64 3.81 3.73 3.45 3.63
0.12 0.18 0.22 0.26 0.27 0.35 0.55 0.81 1.16 1.24 1.33 1.31 1.21 1.27 1.46 1.80 2.05 2.56 2.88 3.09 3.51 4.03 4.51 4.84 5.04 4.93 4.55 4.22 4.08 4.00 3.96 3.56 3.29 3.26 3.42 3.23 3.22 3.25 3.29 3.54 3.50 3.58 3.74 3.71 3.69 3.83 3.60 3.24 3.53
0.16 0.19 0.23 0.24 0.26 0.46 0.63 1.14 1.39 1.30 1.30 1.28 1.22 1.27 1.45 1.89 2.33 2.61 2.82 2.95 3.19 3.59 3.90 4.01 4.21 4.19 4.03 4.08 4.12 4.10 4.13 3.73 3.67 3.69 3.71 3.48 3.48 3.50 3.51 3.50 3.46 3.51 3.31 3.42 3.51 3.52 3.54 3.47 3.39
0.22 0.21 0.18 0.21 0.31 0.58 0.70 1.43 1.83 1.62 1.50 1.56 1.55 1.46 1.71 1.99 2.03 2.22 2.50 2.77 2.94 3.18 3.50 3.71 3.78 3.75 3.68 3.81 3.88 3.79 3.61 3.50 3.67 3.95 3.90 3.63 3.42 3.31 3.14 3.09 3.27 3.31 3.08 3.19 2.85 3.04 3.24 3.24 3.09
0.19 0.19 0.21 0.26 0.35 0.58 0.75 1.17 1.73 1.65 1.82 1.78 1.59 1.65 1.92 1.88 1.76 1.88 2.08 2.40 2.52 2.84 3.12 3.32 3.59 3.68 3.63 3.72 3.72 3.76 3.59 3.58 3.64 3.66 3.72 3.52 3.34 3.03 2.71 2.75 3.00 2.98 2.90 2.82 2.73 2.94 2.79 2.71 2.79
0.15 0.20 0.31 0.42 0.59 1.02 0.82 0.95 1.55 1.63 1.53 1.53 1.50 1.45 1.64 1.57 1.54 1.76 1.94 2.23 2.39 2.51 2.65 2.76 2.98 3.25 3.43 3.48 3.45 3.51 3.47 3.46 3.42 3.42 3.33 3.11 2.96 2.77 2.47 2.37 2.60 2.75 2.81 2.79 2.75 2.84 2.73 2.76 2.87
0.16 0.30 0.78 1.20 1.39 1.35 0.72 0.85 1.38 1.27 1.18 1.20 1.31 1.33 1.36 1.30 1.28 1.51 1.67 1.84 2.05 2.16 2.27 2.42 2.71 3.06 3.14 3.10 3.06 3.18 3.27 3.28 3.22 3.21 3.07 2.85 2.63 2.41 2.36 2.39 2.55 2.60 2.68 2.56 2.62 2.70 2.71 2.87 2.93
0.19 0.27 0.73 1.08 1.21 1.13 0.89 1.30 1.71 1.27 1.09 1.13 1.23 1.22 1.17 1.09 1.05 1.21 1.48 1.79 1.94 1.92 1.99 2.14 2.45 2.72 2.76 2.70 2.84 3.12 3.19 3.23 3.16 3.20 2.88 2.63 2.42 2.38 2.49 2.50 2.38 2.34 2.43 2.31 2.61 2.54 2.58 2.82 2.90
0.19 0.22 0.32 0.53 0.64 0.92 1.15 1.45 1.45 0.99 0.92 0.98 1.05 1.08 1.18 1.12 1.04 1.14 1.24 1.45 1.57 1.63 1.70 1.85 2.28 2.57 2.66 2.74 2.87 3.01 3.13 3.10 3.06 2.97 2.70 2.44 2.46 2.42 2.58 2.57 2.49 2.38 2.44 2.56 2.84 2.75 2.67 2.90 2.89
0.18 0.23 0.28 0.42 0.70 1.06 1.25 1.54 1.67 1.18 0.95 0.71 0.69 0.79 0.85 0.86 0.87 0.95 1.01 1.13 1.24 1.41 1.68 1.87 2.05 2.37 2.48 2.58 2.75 2.78 3.02 2.92 2.77 2.74 2.52 2.29 2.20 2.31 2.55 2.71 2.60 2.46 2.47 2.64 2.82 2.78 2.93 3.12 3.16
0.21 0.23 0.27 0.33 0.47 0.82 1.37 1.56 1.19 0.96 0.82 0.76 0.72 0.81 0.85 0.81 0.78 0.83 0.96 1.10 1.20 1.35 1.57 1.71 1.76 1.99 2.18 2.32 2.52 2.51 2.52 2.60 2.70 2.55 2.28 2.22 2.26 2.39 2.46 2.57 2.55 2.46 2.48 2.61 2.68 2.64 2.97 3.13 3.15
0.21 0.20 0.24 0.35 0.36 0.48 0.86 1.20 0.83 0.82 0.86 0.82 0.81 0.87 0.95 0.92 0.84 0.89 1.06 1.19 1.27 1.42 1.48 1.53 1.60 1.81 2.02 2.22 2.44 2.51 2.51 2.57 2.62 2.48 2.29 2.29 2.37 2.39 2.34 2.40 2.39 2.26 2.29 2.51 2.53 2.58 2.90 3.06 2.93